Weather in Ventimiglia

Italy     43°47′24″N   7°36′52″E
temp.,
°C
wind,
m/s
gust,
m/s
humid.,
%
clouds,
%
prec.,
mm/h
press.,
hPa
HPBL,
m
18 april, sun
sun1823:00+13nw1149100 0.0 1014172
02:00+12nne225368 0.0 1014139
05:00+12n3253100 0.1 1014149
08:00+11n2249100 0.1 1015150
11:00+12se335958 0.1 1015486
14:00+12s336371 0.3 1015801
17:00+11nnw5367100 1.1 1016475
20:00+11nw6568100 2.2 1016321
19 april, mon
mon1923:00+11nnw546419 0.1 1016149
02:00+11n21575 0.1 1016131
05:00+11nnw43585 0.0 1015128
08:00+11nnw33543 0.0 1016130
11:00+12sse32533 0.0 1016353
14:00+11s32591 0.0 1016371
17:00+12sw44626 0.0 1015523
20:00+13wsw44656 0.0 1015579
20 april, tue
tue2023:00+13wsw336654 0.0 1015558
02:00+12nne22673 0.0 1015176
05:00+12n33643 0.0 1014200
08:00+12ne33640 0.0 1015301
11:00+12ese44721 0.0 1015573
14:00+12ese33690 0.1 1015473
17:00+13ese33671 0.0 1014484
20:00+13s21695 0.0 1015474
21 april, wed
wed2123:00+13ene11695 0.0 1016308
02:00+12ene34757 0.0 1016323
05:00+12ne3371100 0.0 1016281
08:00+12nne2266100 0.0 1017264
11:00+13ese3368100 0.0 1018476
14:00+13e5575100 0.3 1018483
17:00+13e3373100 0.6 1017369
20:00+13e2273100 0.6 1018384
22 april, thu
thu2223:00+13ene337795 0.1 1019317
02:00+12nne227339 0.1 1019188
05:00+12nne226826 0.0 1018173
08:00+12nnw22665 0.0 1019154
11:00+13se22705 0.0 1020322
14:00+13e668010 0.1 1020517
17:00+13e22777 0.1 1019347
20:00+13s11752 0.1 1018147